When you browse on this site, cookies collect data to enhance your experience and personalize the content and advertising you see.
Visit our Privacy Policy to learn more. By continuing to use the site, you agree to this use of cookies and data.
  • In Hungary
  • List of Countries
  • For 7 days
  • Water Temperature
  • Weather Map
  • News
  • Weather Widgets
  • user-avatar
    Login

    Hourly Weather Sidi Bu-l-Abbas

    Today, 31 May, Sunday

    Time Temperature Precipitation Wind Pressure Humidity
    00:00 +23°C° 0 mm 1 mps 717 mmHg 56%
    01:00 +23°C° 0 mm 1 mps 716 mmHg 57%
    02:00 +23°C° 0 mm 1 mps 716 mmHg 58%
    03:00 +22°C° 0 mm 1 mps 716 mmHg 59%
    04:00 +23°C° 0 mm 1 mps 716 mmHg 57%
    05:00 +23°C° 0 mm 1 mps 715 mmHg 56%
    06:00 +24°C° 0 mm 1 mps 715 mmHg 54%
    07:00 +25°C° 0 mm 1 mps 716 mmHg 50%
    08:00 +26°C° 0 mm 1 mps 717 mmHg 47%
    09:00 +27°C° 0 mm 2 mps 717 mmHg 43%
    10:00 +28°C° 0 mm 2 mps 717 mmHg 40%
    11:00 +30°C° 0 mm 3 mps 717 mmHg 37%
    12:00 +31°C° 0 mm 3 mps 717 mmHg 34%
    13:00 +32°C° 0.1 mm 4 mps 717 mmHg 36%
    14:00 +32°C° 0.1 mm 5 mps 717 mmHg 38%
    15:00 +30°C° 0.1 mm 6 mps 717 mmHg 39%
    16:00 +28°C° 0 mm 5 mps 716 mmHg 44%
    17:00 +27°C° 0 mm 5 mps 716 mmHg 49%
    18:00 +25°C° 0 mm 4 mps 716 mmHg 54%
    19:00 +24°C° 0 mm 3 mps 717 mmHg 56%
    20:00 +24°C° 0 mm 3 mps 718 mmHg 57%
    21:00 +23°C° 0 mm 2 mps 718 mmHg 59%
    22:00 +23°C° 0 mm 1 mps 718 mmHg 61%
    23:00 +23°C° 0 mm 1 mps 718 mmHg 63%

    Tomorrow, 1 June, Monday

    Time Temperature Precipitation Wind Pressure Humidity
    00:00 +20°C° 0 mm 0 mps 718 mmHg 65%
    01:00 +22°C° 0 mm 1 mps 718 mmHg 64%
    02:00 +22°C° 0 mm 1 mps 718 mmHg 64%
    03:00 +22°C° 0 mm 1 mps 718 mmHg 63%
    04:00 +22°C° 0 mm 1 mps 718 mmHg 64%
    05:00 +22°C° 0 mm 1 mps 718 mmHg 65%
    06:00 +22°C° 0 mm 1 mps 718 mmHg 65%
    07:00 +23°C° 0 mm 1 mps 719 mmHg 59%
    08:00 +25°C° 0 mm 1 mps 719 mmHg 53%
    09:00 +26°C° 0 mm 1 mps 719 mmHg 47%
    10:00 +28°C° 0 mm 1 mps 719 mmHg 42%
    11:00 +29°C° 0 mm 2 mps 719 mmHg 38%
    12:00 +31°C° 0 mm 3 mps 719 mmHg 34%
    13:00 +31°C° 0 mm 3 mps 719 mmHg 33%
    14:00 +32°C° 0 mm 4 mps 719 mmHg 33%
    15:00 +33°C° 0 mm 5 mps 719 mmHg 32%
    16:00 +32°C° 0 mm 5 mps 719 mmHg 34%
    17:00 +30°C° 0 mm 4 mps 719 mmHg 37%
    18:00 +29°C° 0 mm 4 mps 718 mmHg 39%
    19:00 +28°C° 0 mm 3 mps 719 mmHg 43%
    20:00 +27°C° 0 mm 2 mps 719 mmHg 47%
    21:00 +26°C° 0 mm 2 mps 720 mmHg 51%
    22:00 +25°C° 0 mm 1 mps 719 mmHg 53%
    23:00 +24°C° 0 mm 1 mps 719 mmHg 55%

    Day after tomorrow, 2 June, Tuesday

    Time Temperature Precipitation Wind Pressure Humidity
    00:00 +22°C° 0 mm 0 mps 719 mmHg 57%
    01:00 +21°C° 0 mm 0 mps 719 mmHg 59%
    02:00 +21°C° 0 mm 0 mps 718 mmHg 62%
    03:00 +22°C° 0 mm 1 mps 718 mmHg 64%
    04:00 +22°C° 0 mm 1 mps 718 mmHg 65%
    05:00 +22°C° 0 mm 1 mps 718 mmHg 67%
    06:00 +22°C° 0 mm 1 mps 718 mmHg 68%
    07:00 +24°C° 0 mm 1 mps 718 mmHg 60%
    08:00 +26°C° 0 mm 1 mps 719 mmHg 52%
    09:00 +27°C° 0 mm 2 mps 719 mmHg 44%
    10:00 +29°C° 0 mm 3 mps 719 mmHg 41%
    11:00 +30°C° 0 mm 3 mps 719 mmHg 39%
    12:00 +32°C° 0 mm 4 mps 718 mmHg 37%
    13:00 +30°C° 0 mm 5 mps 718 mmHg 40%
    14:00 +30°C° 0 mm 5 mps 718 mmHg 43%
    15:00 +29°C° 0 mm 6 mps 717 mmHg 46%
    16:00 +28°C° 0 mm 5 mps 717 mmHg 51%
    17:00 +27°C° 0 mm 5 mps 717 mmHg 56%
    18:00 +25°C° 0 mm 4 mps 717 mmHg 61%
    19:00 +25°C° 0 mm 3 mps 717 mmHg 63%
    20:00 +24°C° 0 mm 2 mps 718 mmHg 65%
    21:00 +22°C° 0 mm 0 mps 718 mmHg 67%
    22:00 +23°C° 0 mm 1 mps 718 mmHg 67%
    23:00 +23°C° 0 mm 1 mps 717 mmHg 68%

    3 June, Wednesday

    Time Temperature Precipitation Wind Pressure Humidity
    00:00 +23°C° 0 mm 1 mps 717 mmHg 69%
    01:00 +22°C° 0 mm 1 mps 717 mmHg 72%
    02:00 +22°C° 0 mm 1 mps 717 mmHg 74%
    03:00 +21°C° 0 mm 1 mps 716 mmHg 77%
    04:00 +21°C° 0 mm 1 mps 716 mmHg 75%
    05:00 +22°C° 0 mm 1 mps 716 mmHg 72%
    06:00 +22°C° 0 mm 1 mps 716 mmHg 70%
    07:00 +24°C° 0 mm 2 mps 717 mmHg 60%
    08:00 +25°C° 0 mm 3 mps 717 mmHg 50%
    09:00 +27°C° 0 mm 4 mps 717 mmHg 41%
    10:00 +28°C° 0 mm 4 mps 717 mmHg 39%
    11:00 +28°C° 0 mm 4 mps 717 mmHg 37%
    12:00 +29°C° 0 mm 4 mps 717 mmHg 35%
    13:00 +29°C° 0 mm 4 mps 716 mmHg 35%
    14:00 +29°C° 0 mm 5 mps 716 mmHg 36%
    15:00 +30°C° 0 mm 5 mps 715 mmHg 37%
    16:00 +29°C° 0 mm 5 mps 715 mmHg 40%
    17:00 +28°C° 0 mm 4 mps 715 mmHg 42%
    18:00 +27°C° 0 mm 4 mps 714 mmHg 45%
    19:00 +26°C° 0 mm 3 mps 715 mmHg 48%
    20:00 +25°C° 0 mm 2 mps 715 mmHg 50%
    21:00 +25°C° 0 mm 1 mps 715 mmHg 52%
    22:00 +24°C° 0 mm 1 mps 715 mmHg 53%
    23:00 +24°C° 0 mm 1 mps 715 mmHg 54%

    4 June, Thursday

    Time Temperature Precipitation Wind Pressure Humidity
    00:00 +23°C° 0 mm 1 mps 715 mmHg 56%
    01:00 +23°C° 0 mm 1 mps 715 mmHg 56%
    02:00 +22°C° 0 mm 1 mps 714 mmHg 56%
    03:00 +22°C° 0 mm 1 mps 714 mmHg 56%
    04:00 +22°C° 0 mm 1 mps 714 mmHg 54%
    05:00 +23°C° 0 mm 1 mps 714 mmHg 52%
    06:00 +23°C° 0 mm 1 mps 715 mmHg 50%
    07:00 +24°C° 0 mm 1 mps 715 mmHg 45%
    08:00 +25°C° 0 mm 2 mps 715 mmHg 40%
    09:00 +26°C° 0 mm 3 mps 715 mmHg 35%
    10:00 +27°C° 0 mm 3 mps 715 mmHg 33%
    11:00 +28°C° 0 mm 3 mps 715 mmHg 32%
    12:00 +29°C° 0 mm 3 mps 715 mmHg 31%
    13:00 +29°C° 0 mm 4 mps 715 mmHg 31%
    14:00 +30°C° 0 mm 5 mps 714 mmHg 32%
    15:00 +30°C° 0 mm 6 mps 714 mmHg 32%
    16:00 +28°C° 0 mm 5 mps 714 mmHg 35%
    17:00 +27°C° 0 mm 5 mps 713 mmHg 38%
    18:00 +26°C° 0 mm 4 mps 713 mmHg 42%
    19:00 +25°C° 0 mm 4 mps 714 mmHg 44%
    20:00 +23°C° 0 mm 4 mps 714 mmHg 47%
    21:00 +21°C° 0 mm 4 mps 715 mmHg 50%
    22:00 +21°C° 0 mm 4 mps 715 mmHg 53%
    23:00 +21°C° 0 mm 3 mps 715 mmHg 56%

    5 June, Friday

    Time Temperature Precipitation Wind Pressure Humidity
    00:00 +20°C° 0 mm 3 mps 716 mmHg 59%
    01:00 +20°C° 0 mm 3 mps 716 mmHg 62%
    02:00 +20°C° 0 mm 3 mps 716 mmHg 65%
    03:00 +19°C° 0 mm 3 mps 716 mmHg 68%
    04:00 +19°C° 0 mm 2 mps 716 mmHg 68%
    05:00 +19°C° 0 mm 2 mps 716 mmHg 68%
    06:00 +20°C° 0 mm 2 mps 716 mmHg 68%
    07:00 +21°C° 0 mm 2 mps 717 mmHg 63%
    08:00 +23°C° 0 mm 2 mps 717 mmHg 58%
    09:00 +24°C° 0 mm 2 mps 717 mmHg 53%
    10:00 +26°C° 0 mm 2 mps 718 mmHg 49%
    11:00 +27°C° 0 mm 3 mps 718 mmHg 44%
    12:00 +28°C° 0 mm 4 mps 718 mmHg 40%
    13:00 +28°C° 0 mm 4 mps 718 mmHg 39%
    14:00 +28°C° 0 mm 5 mps 717 mmHg 38%
    15:00 +29°C° 0 mm 5 mps 717 mmHg 37%
    16:00 +28°C° 0 mm 5 mps 717 mmHg 39%
    17:00 +27°C° 0 mm 5 mps 717 mmHg 41%
    18:00 +27°C° 0 mm 4 mps 717 mmHg 44%
    19:00 +25°C° 0 mm 4 mps 718 mmHg 50%
    20:00 +22°C° 0 mm 4 mps 718 mmHg 57%
    21:00 +21°C° 0 mm 3 mps 718 mmHg 64%
    22:00 +20°C° 0 mm 3 mps 718 mmHg 65%
    23:00 +20°C° 0 mm 3 mps 718 mmHg 65%
    Show more